TimeCDT,TemperatureF,Dew PointF,Humidity,Sea Level PressureIn,VisibilityMPH,Wind Direction,Wind SpeedMPH,Gust SpeedMPH,PrecipitationIn,Events,Conditions,WindDirDegrees,DateUTC
12:53 AM,72.0,66.0,81,29.94,10.0,SSE,15.0,-,N/A,,Clear,160,2013-07-28 05:53:00
1:53 AM,71.1,64.9,81,29.94,10.0,South,13.8,-,N/A,,Clear,180,2013-07-28 06:53:00
2:53 AM,71.1,66.0,84,29.92,10.0,South,18.4,26.5,N/A,,Clear,170,2013-07-28 07:53:00
3:53 AM,69.1,66.0,90,29.92,10.0,South,11.5,-,N/A,,Clear,180,2013-07-28 08:53:00
4:53 AM,68.0,64.9,90,29.91,10.0,South,10.4,-,N/A,,Clear,180,2013-07-28 09:53:00
5:53 AM,68.0,64.9,90,29.94,10.0,South,5.8,-,N/A,,Clear,170,2013-07-28 10:53:00
6:53 AM,68.0,64.9,90,29.94,9.0,SSE,9.2,-,N/A,,Clear,160,2013-07-28 11:53:00
7:53 AM,70.0,66.0,87,29.94,10.0,ESE,6.9,-,N/A,,Clear,120,2013-07-28 12:53:00
8:53 AM,72.0,64.9,78,29.95,10.0,South,13.8,-,N/A,,Clear,180,2013-07-28 13:53:00
9:53 AM,77.0,64.0,64,29.95,10.0,South,18.4,24.2,N/A,,Clear,180,2013-07-28 14:53:00
10:53 AM,81.0,64.0,56,29.94,10.0,South,19.6,25.3,N/A,,Clear,180,2013-07-28 15:53:00
11:53 AM,82.9,61.0,47,29.94,10.0,South,21.9,27.6,N/A,,Clear,180,2013-07-28 16:53:00
12:53 PM,86.0,61.0,43,29.93,10.0,South,18.4,-,N/A,,Clear,170,2013-07-28 17:53:00
1:53 PM,88.0,57.0,35,29.91,10.0,SSE,17.3,28.8,N/A,,Clear,160,2013-07-28 18:53:00
2:53 PM,89.1,55.0,31,29.88,10.0,South,19.6,28.8,N/A,,Clear,180,2013-07-28 19:53:00
3:53 PM,90.0,51.1,26,29.87,10.0,South,15.0,24.2,N/A,,Clear,180,2013-07-28 20:53:00
4:53 PM,90.0,50.0,25,29.84,10.0,South,20.7,-,N/A,,Clear,170,2013-07-28 21:53:00
5:53 PM,89.1,51.1,27,29.84,10.0,SSE,18.4,24.2,N/A,,Clear,150,2013-07-28 22:53:00
6:53 PM,87.1,57.9,37,29.85,10.0,SE,17.3,-,N/A,,Clear,140,2013-07-28 23:53:00
7:53 PM,82.9,59.0,44,29.87,10.0,SE,17.3,-,N/A,,Clear,130,2013-07-29 00:53:00
8:53 PM,80.1,62.1,54,29.88,10.0,SE,15.0,-,N/A,,Clear,130,2013-07-29 01:53:00
9:53 PM,78.1,63.0,60,29.90,10.0,SE,12.7,-,N/A,,Clear,130,2013-07-29 02:53:00
10:53 PM,75.9,64.0,67,29.91,10.0,SE,13.8,-,N/A,,Clear,130,2013-07-29 03:53:00
11:53 PM,75.0,64.9,71,29.91,10.0,SE,11.5,-,N/A,,Clear,130,2013-07-29 04:53:00